Search for airport 
image banner adimage banner adimage banner ad
image banner ad

EVSM - Lielvarde M Sola

Located in Lielvarde, Latvia

ICAO - , IATA -

Data provided by Airmate  

General information

Coordinates: N56°39'59" E24°54'11"
Elevation is 142 feet MSL.
Magnetic variation is 7° East
View others Airports in Ogre District

Operational data

Special qualification required
Current time UTC:
Current local time:
Weather at : EVRA - Riga ( 64 km )
METAR: EVRA 250020Z 00000KT 9999 2200 MIFG NSC 09/08 Q1017 NOSIG
TAF: TAF EVRA 242303Z 2500/2524 VRB02KT CAVOK TEMPO 2500/2505 0500 FG
View NOTAMs / SUP AIP / TFR affecting this airport [VIEW]
Communications frequencies: [VIEW]

Runways:

Airport contact information

Address: Lielvarde Latvia

Satellite view of EVSM